TimeEST,TemperatureF,Dew PointF,Humidity,Sea Level PressureIn,VisibilityMPH,Wind Direction,Wind SpeedMPH,Gust SpeedMPH,PrecipitationIn,Events,Conditions,WindDirDegrees,DateUTC
12:15 AM,21.2,14.0,74,30.29,10.0,Calm,Calm,-,N/A,,Clear,0,2013-02-18 05:15:00
12:35 AM,21.2,14.0,74,30.29,10.0,Calm,Calm,-,N/A,,Clear,0,2013-02-18 05:35:00
12:55 AM,19.4,14.0,80,30.30,10.0,Calm,Calm,-,N/A,,Clear,0,2013-02-18 05:55:00
1:15 AM,19.4,12.2,74,30.31,10.0,Calm,Calm,-,N/A,,Clear,0,2013-02-18 06:15:00
1:35 AM,19.4,14.0,80,30.31,10.0,Calm,Calm,-,N/A,,Clear,0,2013-02-18 06:35:00
1:55 AM,19.4,14.0,80,30.31,10.0,Calm,Calm,-,N/A,,Clear,0,2013-02-18 06:55:00
2:15 AM,19.4,14.0,80,30.31,10.0,Calm,Calm,-,N/A,,Clear,0,2013-02-18 07:15:00
2:35 AM,19.4,14.0,80,30.31,10.0,Calm,Calm,-,N/A,,Clear,0,2013-02-18 07:35:00
2:55 AM,19.4,14.0,80,30.31,10.0,Calm,Calm,-,N/A,,Clear,0,2013-02-18 07:55:00
3:15 AM,17.6,14.0,86,30.32,10.0,Calm,Calm,-,N/A,,Clear,0,2013-02-18 08:15:00
3:35 AM,19.4,14.0,80,30.32,10.0,Calm,Calm,-,N/A,,Clear,0,2013-02-18 08:35:00
3:55 AM,19.4,14.0,80,30.33,10.0,Calm,Calm,-,N/A,,Clear,0,2013-02-18 08:55:00
4:15 AM,19.4,15.8,86,30.33,10.0,Calm,Calm,-,N/A,,Clear,0,2013-02-18 09:15:00
4:35 AM,19.4,14.0,80,30.34,10.0,Calm,Calm,-,N/A,,Clear,0,2013-02-18 09:35:00
4:55 AM,17.6,15.8,93,30.34,10.0,Calm,Calm,-,N/A,,Clear,0,2013-02-18 09:55:00
5:15 AM,17.6,15.8,93,30.35,10.0,Calm,Calm,-,N/A,,Clear,0,2013-02-18 10:15:00
5:35 AM,17.6,14.0,86,30.35,10.0,Calm,Calm,-,N/A,,Clear,0,2013-02-18 10:35:00
5:55 AM,17.6,15.8,93,30.36,10.0,Calm,Calm,-,N/A,,Clear,0,2013-02-18 10:55:00
6:15 AM,15.8,15.8,100,30.37,10.0,Calm,Calm,-,N/A,,Clear,0,2013-02-18 11:15:00
6:35 AM,17.6,17.6,100,30.38,10.0,Calm,Calm,-,N/A,,Clear,0,2013-02-18 11:35:00
7:15 AM,17.6,17.6,100,30.39,10.0,Calm,Calm,-,N/A,,Clear,0,2013-02-18 12:15:00
7:35 AM,19.4,19.4,100,30.39,10.0,Calm,Calm,-,N/A,,Clear,0,2013-02-18 12:35:00
7:55 AM,23.0,19.4,86,30.39,10.0,Calm,Calm,-,N/A,,Clear,0,2013-02-18 12:55:00
8:15 AM,24.8,21.2,86,30.40,10.0,Calm,Calm,-,N/A,,Clear,0,2013-02-18 13:15:00
8:35 AM,28.4,21.2,74,30.41,10.0,Calm,Calm,-,N/A,,Clear,0,2013-02-18 13:35:00
8:55 AM,32.0,14.0,48,30.42,10.0,SW,4.6,-,N/A,,Clear,220,2013-02-18 13:55:00
9:15 AM,32.0,15.8,51,30.42,10.0,Calm,Calm,-,N/A,,Clear,0,2013-02-18 14:15:00
9:35 AM,33.8,15.8,48,30.42,10.0,South,4.6,-,N/A,,Clear,180,2013-02-18 14:35:00
9:55 AM,33.8,15.8,48,30.42,10.0,South,3.5,-,N/A,,Clear,180,2013-02-18 14:55:00
10:15 AM,35.6,14.0,41,30.42,10.0,South,4.6,-,N/A,,Clear,180,2013-02-18 15:15:00
10:35 AM,37.4,14.0,38,30.41,10.0,South,4.6,-,N/A,,Clear,190,2013-02-18 15:35:00
10:55 AM,37.4,14.0,38,30.41,10.0,South,4.6,-,N/A,,Clear,170,2013-02-18 15:55:00
11:15 AM,39.2,14.0,36,30.41,10.0,South,5.8,-,N/A,,Clear,190,2013-02-18 16:15:00
11:35 AM,41.0,17.6,39,30.41,10.0,South,5.8,-,N/A,,Clear,170,2013-02-18 16:35:00
11:55 AM,42.8,14.0,31,30.40,10.0,South,5.8,-,N/A,,Clear,180,2013-02-18 16:55:00
12:15 PM,42.8,14.0,31,30.39,10.0,West,4.6,-,N/A,,Clear,270,2013-02-18 17:15:00
12:35 PM,44.6,17.6,34,30.38,10.0,WSW,3.5,-,N/A,,Clear,240,2013-02-18 17:35:00
12:55 PM,44.6,15.8,31,30.36,10.0,South,4.6,-,N/A,,Clear,190,2013-02-18 17:55:00
1:15 PM,44.6,14.0,29,30.35,10.0,Calm,Calm,-,N/A,,Clear,0,2013-02-18 18:15:00
1:35 PM,46.4,14.0,27,30.34,10.0,Calm,Calm,-,N/A,,Clear,0,2013-02-18 18:35:00
1:55 PM,48.2,17.6,30,30.33,10.0,South,9.2,-,N/A,,Clear,180,2013-02-18 18:55:00
2:15 PM,48.2,14.0,25,30.32,10.0,Calm,Calm,-,N/A,,Clear,0,2013-02-18 19:15:00
2:35 PM,48.2,14.0,25,30.32,10.0,Calm,Calm,-,N/A,,Clear,0,2013-02-18 19:35:00
2:55 PM,50.0,17.6,28,30.31,10.0,South,8.1,-,N/A,,Clear,190,2013-02-18 19:55:00
3:15 PM,50.0,17.6,28,30.31,10.0,South,9.2,-,N/A,,Clear,170,2013-02-18 20:15:00
3:35 PM,50.0,17.6,28,30.31,10.0,South,8.1,-,N/A,,Clear,170,2013-02-18 20:35:00
3:55 PM,50.0,17.6,28,30.30,10.0,South,11.5,-,N/A,,Clear,170,2013-02-18 20:55:00
4:15 PM,50.0,17.6,28,30.30,10.0,South,10.4,-,N/A,,Clear,180,2013-02-18 21:15:00
4:35 PM,50.0,17.6,28,30.30,10.0,SSW,5.8,-,N/A,,Clear,200,2013-02-18 21:35:00
4:55 PM,48.2,17.6,30,30.30,10.0,South,10.4,-,N/A,,Clear,190,2013-02-18 21:55:00
5:15 PM,46.4,19.4,34,30.30,10.0,South,6.9,-,N/A,,Clear,180,2013-02-18 22:15:00
5:35 PM,44.6,19.4,37,30.30,10.0,South,4.6,-,N/A,,Clear,190,2013-02-18 22:35:00
6:15 PM,41.0,21.2,45,30.31,10.0,South,3.5,-,N/A,,Clear,190,2013-02-18 23:15:00
6:35 PM,41.0,21.2,45,30.31,10.0,Calm,Calm,-,N/A,,Clear,0,2013-02-18 23:35:00
6:55 PM,37.4,21.2,52,30.31,10.0,Calm,Calm,-,N/A,,Clear,0,2013-02-18 23:55:00
7:15 PM,35.6,21.2,56,30.31,10.0,South,3.5,-,N/A,,Clear,190,2013-02-19 00:15:00
7:35 PM,37.4,21.2,52,30.31,10.0,South,3.5,-,N/A,,Clear,170,2013-02-19 00:35:00
7:55 PM,35.6,23.0,60,30.30,10.0,South,4.6,-,N/A,,Clear,180,2013-02-19 00:55:00
8:15 PM,37.4,21.2,52,30.30,10.0,South,5.8,-,N/A,,Clear,180,2013-02-19 01:15:00
8:35 PM,37.4,21.2,52,30.30,10.0,South,4.6,-,N/A,,Clear,190,2013-02-19 01:35:00
8:55 PM,37.4,19.4,48,30.30,10.0,South,4.6,-,N/A,,Clear,190,2013-02-19 01:55:00
9:15 PM,41.0,21.2,45,30.30,10.0,South,10.4,-,N/A,,Clear,190,2013-02-19 02:15:00
9:35 PM,41.0,21.2,45,30.29,10.0,South,9.2,-,N/A,,Clear,190,2013-02-19 02:35:00
9:55 PM,39.2,23.0,52,30.29,10.0,South,8.1,-,N/A,,Clear,180,2013-02-19 02:55:00
10:15 PM,37.4,23.0,56,30.28,10.0,South,5.8,-,N/A,,Clear,170,2013-02-19 03:15:00
10:35 PM,37.4,23.0,56,30.28,10.0,South,5.8,-,N/A,,Clear,190,2013-02-19 03:35:00
10:55 PM,37.4,24.8,60,30.28,10.0,South,5.8,-,N/A,,Clear,190,2013-02-19 03:55:00
11:15 PM,35.6,24.8,65,30.28,10.0,South,5.8,-,N/A,,Clear,190,2013-02-19 04:15:00
11:35 PM,37.4,26.6,65,30.28,10.0,South,4.6,-,N/A,,Clear,190,2013-02-19 04:35:00
11:55 PM,35.6,26.6,70,30.27,10.0,South,4.6,-,N/A,,Clear,190,2013-02-19 04:55:00